Location: Maynard F. Jordan Observatory
(44.9000°N, 68.6700°W)
Time: 17:43:12
(UTC-04:00)

Cosmos 2297 Rocket - Visible Passes

Search period start: 29 June 2016 00:00
Search period end: 09 July 2016 00:00
Orbit: 840 x 843 km, 71.0° (Epoch: 28 June)

Date Brightness Start Highest point End Pass type
(mag) Time Alt. Az. Time Alt. Az. Time Alt. Az.
29 Jun 4.8 01:27:02 10° WNW 01:29:16 12° NW 01:31:30 10° NNW visible
29 Jun 3.4 21:42:05 14° SE 21:45:11 22° E 21:49:28 10° NE visible
29 Jun 2.7 23:23:49 13° SW 23:28:46 58° WNW 23:34:23 10° NNE visible
30 Jun 4.8 01:11:40 10° WNW 01:14:07 13° NW 01:16:34 10° NNW visible
30 Jun 3.5 21:26:16 11° SE 21:30:08 21° E 21:34:18 10° NE visible
30 Jun 2.6 23:08:05 10° SW 23:13:41 61° WNW 23:19:19 10° NNE visible
01 Jul 4.8 00:56:20 10° WNW 00:58:58 13° NW 01:01:37 10° N visible
01 Jul 3.5 21:11:06 10° SE 21:15:06 20° E 21:19:06 10° NE visible
01 Jul 2.6 22:52:59 10° SW 22:58:36 64° WNW 23:04:14 10° NNE visible
02 Jul 4.8 00:41:01 10° WNW 00:43:49 14° NW 00:46:39 10° N visible
02 Jul 3.6 20:56:12 10° SE 21:00:03 19° E 21:03:55 10° ENE visible
02 Jul 2.5 22:37:52 10° SW 22:43:30 67° WNW 22:49:10 10° NNE visible
03 Jul 4.9 00:25:42 10° WNW 00:28:41 14° NW 00:31:41 10° N visible
03 Jul 2.5 22:22:46 10° SSW 22:28:24 71° WNW 22:34:05 10° NNE visible
04 Jul 4.9 00:10:25 10° WNW 00:13:33 15° NW 00:16:42 10° N visible
04 Jul 2.4 22:07:41 10° SSW 22:13:20 74° WNW 22:19:01 10° NNE visible
04 Jul 4.9 23:55:08 10° WNW 23:58:24 15° NW 00:01:42 10° N visible
05 Jul 2.4 21:52:35 10° SSW 21:58:14 78° WNW 22:03:56 10° NNE visible
05 Jul 4.9 23:39:52 10° W 23:43:16 16° NW 23:46:42 10° N visible
06 Jul 2.3 21:37:30 10° SSW 21:43:09 81° WNW 21:48:51 10° NNE visible
06 Jul 4.9 23:24:35 10° W 23:28:08 17° NW 23:31:42 10° N visible
07 Jul 2.3 21:22:25 10° SSW 21:28:05 85° WNW 21:33:47 10° NNE visible
07 Jul 5.0 23:09:20 10° W 23:13:00 17° NW 23:16:41 10° N visible
08 Jul 2.3 21:07:20 10° SSW 21:12:59 89° WNW 21:18:42 10° NNE visible
08 Jul 5.0 22:54:05 10° W 22:57:53 18° NW 23:01:41 10° N visible
